SCP
0 0 0 0 0 0 0 0 0 0 0 0 0 0 0 0 0 0 0 0 0 0 0 0 0 0 0 0 0 0 0 0 0 0 -0 -0 -0 0 0 0 0 0 0 0 -0 0 0 0 0 0 1 1 0 0
0 0 0 0 0 0 0 0 0 0 0 0 0 0 0 0 0 0 0 0 0 0 0 0 0 0 0 0 0 0 0 0 0 0 0 0 0 0 0 0 0 0 0 0 0 0 0 0 0 0 0 0 0 0
0 0 0 0 0 0 0 0 0 0 0 0 -0 0 0 0 0 0 0 0 0 0 0 0 0 0 0 0 0 0 0 0 0 0 0 0 0 0 0 0 0 0 0 0 0 0 0 0 0 0 0 0 0 0
0 0 0 0 0 0 0 0 0 0 0 0 0 0 0 0 0 0 0 0 0 0 0 0 0 0 0 0 0 0 0 0 0 0 0 0 0 0 0 0 0 0 0 0 0 0 0 0 0 0 0 0 0 0
0 0 0 0 0 0 0 0 0 0 0 0 0 0 0 0 0 0 0 0 0 0 0 0 0 0 0 0 0 0 0 0 0 0 0 0 0 0 0 0 0 0 0 0 0 0 0 0 0 0 0 0 0 0
0 0 0 0 0 0 0 0 0 0 0 0 0 0 0 0 0 0 0 0 0 0 0 0 0 0 0 0 0 0 0 0 0 0 0 0 0 0 0 0 0 0 0 0 0 0 0 0 0 0 0 0 0 0
0 0 0 0 0 0 0 0 0 0 0 0 0 0 0 0 0 0 0 0 0 0 0 0 0 0 0 0 0 0 0 0 0 0 0 0 0 0 0 0 0 0 0 0 0 0 0 0 0 0 0 0 0 0
0 0 0 0 0 0 0 0 0 0 0 0 0 0 0 0 0 0 0 0 0 0 0 0 0 0 0 0 0 0 0 0 0 0 0 0 0 0 0 0 0 0 0 0 0 0 0 0 0 0 0 0 0 0
0 0 0 0 0 0 0 0 0 0 0 0 0 0 0 0 0 0 0 0 0 0 0 0 0 0 0 0 0 0 0 0 0 0 0 0 0 0 0 0 0 0 0 0 0 0 0 0 0 0 0 0 0 0
0 0 0 0 0 0 0 0 0 0 0 0 0 0 0 0 0 0 0 0 0 0 0 0 0 0 0 0 0 0 0 0 0 0 0 0 -0 -0 0 0 0 0 0 0 0 0 0 0 0 0 0 0 0 0
0 0 0 0 0 0 0 0 0 0 0 0 0 0 0 0 0 0 0 0 0 0 0 0 0 0 0 0 0 0 0 0 0 0 0 0 0 0 0 0 0 0 0 0 0 0 0 0 0 0 0 0 0 0
0 0 0 0 0 0 0 0 0 0 0 0 0 0 0 0 0 0 0 0 0 0 0 0 0 0 0 0 0 0 0 0 0 0 0 0 0 0 0 0 0 0 0 0 0 0 0 0 0 0 0 0 0 0
0 0 0 0 0 0 0 0 0 0 0 0 0 0 0 0 0 0 0 0 0 0 0 0 0 0 0 0 0 0 0 0 0 0 0 0 0 0 0 0 0 0 0 0 0 0 0 0 0 0 0 0 0 0
0 0 0 0 0 0 0 0 0 0 0 0 0 0 0 0 0 0 0 0 0 0 0 0 0 0 0 0 0 0 0 0 0 0 0 0 0 0 0 0 0 0 0 0 0 0 0 0 0 0 0 0 0 0
0 0 0 0 0 0 0 0 0 0 0 0 0 0 0 0 0 0 0 0 0 0 0 0 0 0 0 0 0 0 0 0 0 0 0 0 0 0 0 0 0 0 0 0 0 0 0 0 0 0 0 0 0 0
0 0 0 0 0 0 0 0 0 0 0 0 0 0 0 0 0 0 0 0 0 0 0 0 0 0 0 0 0 0 0 0 0 0 0 0 0 0 0 0 0 0 0 0 0 0 0 0 0 1 0 0 0 0
0 0 0 0 0 0 0 0 0 0 0 0 0 0 0 0 0 0 0 0 0 0 0 0 0 0 0 0 0 0 0 0 0 0 0 0 0 0 0 0 0 0 0 0 0 0 0 0 1 0 0 0 0 0
0 0 0 0 0 0 0 0 0 0 0 0 0 0 0 0 0 0 0 0 0 0 0 0 0 0 0 0 0 0 0 0 0 0 0 0 0 0 0 0 0 0 0 0 0 0 0 0 0 0 1 0 0 0
0 0 0 0 0 0 0 0 0 0 0 0 0 0 0 0 0 0 0 0 0 0 0 0 0 0 0 0 0 0 0 0 0 0 0 0 0 0 0 0 0 0 0 0 0 0 0 0 0 0 0 0 0 0
0 0 0 0 0 0 0 0 0 0 0 0 0 0 0 0 0 0 0 0 0 0 0 0 0 0 0 0 0 0 0 0 0 0 0 0 0 0 0 0 0 0 0 0 0 0 0 0 0 0 0 0 0 0
0 0 0 0 0 0 0 0 0 0 0 0 0 0 0 0 0 0 0 0 0 0 0 0 0 0 0 0 0 0 0 0 0 0 0 0 0 0 0 0 0 0 0 0 0 0 0 0 0 0 0 0 0 0
0 0 0 0 0 0 0 0 0 0 0 0 0 0 0 0 0 0 0 0 0 0 0 0 0 0 0 0 0 0 0 0 0 0 0 0 0 0 0 0 0 0 0 0 0 0 0 0 0 0 0 0 0 0
0 0 0 0 0 0 0 0 0 0 0 0 0 0 0 0 0 0 0 0 0 0 0 0 0 0 0 0 0 0 0 0 0 0 0 0 0 0 0 0 0 0 0 0 0 0 0 0 0 0 0 0 0 0
0 0 0 0 0 0 0 0 0 0 0 0 0 0 0 0 0 0 0 -0 0 0 0 0 0 0 0 0 0 0 0 0 0 0 0 0 0 0 0 0 0 0 0 0 0 0 0 0 0 0 0 0 0 0
0 0 0 0 0 0 0 0 0 0 0 0 0 0 0 0 0 0 0 0 0 0 0 0 0 0 0 0 0 0 0 0 0 0 0 0 0 0 0 0 0 0 0 0 0 0 0 0 0 0 0 0 0 0
0 0 0 0 0 -0 -0 -0 -0 -0 -0 -0 0 0 0 0 -0 0 0 0 0 0 0 0 0 0 0 0 0 0 0 0 0 0 0 0 0 0 0 0 0 0 0 0 0 0 0 0 0 0 0 0 0 0
0 0 0 0 0 0 0 0 0 0 0 0 0 0 0 0 0 0 0 0 0 0 0 0 0 0 0 0 0 0 0 0 0 0 0 0 0 0 0 0 0 0 0 0 0 0 0 0 0 0 0 0 0 0
0 0 0 0 0 0 0 0 0 0 0 0 0 0 0 0 0 0 0 0 0 0 0 0 0 0 0 0 0 0 0 0 0 0 0 0 0 0 0 0 0 -0 0 0 0 0 0 0 0 0 0 0 0 0
0 0 0 0 0 0 0 0 0 0 0 0 0 0 0 0 0 0 0 0 0 -0 0 0 0 0 -0 0 0 0 0 0 -0 -0 -0 -0 0 0 0 0 0 0 0 0 0 0 0 -0 -0 0 0 0 0 0
0 0 0 0 0 0 0 0 -0 -0 -0 -0 -0 -0 -0 -0 -0 -0 -0 -0 0 0 0 0 0 -0 -0 0 -0 -0 -0 -0 0 0 0 0 0 0 0 0 0 0 0 0 0 0 0 0 0 0 0 0 0 0
0 0 0 0 0 0 -0 0 0 0 0 -0 0 0 0 0 0 0 0 0 0 0 0 0 0 -0 -0 -0 -0 -0 -0 0 0 0 0 0 0 0 0 0 0 0 0 0 0 0 0 0 0 0 0 0 0 0
0 0 0 0 0 0 0 0 0 0 0 0 0 0 0 0 0 0 0 0 -0 -0 0 -0 -0 -0 -0 -0 0 0 0 0 0 0 0 0 0 0 0 0 0 0 0 0 0 0 0 0 0 0 0 0 0 -0
0 0 0 0 0 -0 0 0 0 0 0 0 0 0 0 0 0 0 -0 0 0 0 0 -0 0 0 0 0 0 0 0 0 0 0 0 0 0 0 0 0 0 0 0 0 0 0 0 0 0 0 0 0 0 0
Wind_Speed_500mb
58 58 59 72 58 54 46 39 35 34 34 29 25 22 18 14 9 4 6 12 5 13 16 18 16 23 30 20 13 14 9 9 10 14 17 16 18 8 8 13 6 13 10 7 19 1 8 6 10 11 8 13 10 8
57 55 59 72 61 54 52 45 39 36 39 35 31 27 24 18 12 6 8 20 12 10 11 14 14 11 9 13 14 17 6 11 18 7 9 11 9 7 14 8 8 6 3 8 3 8 7 12 20 10 10 12 9 8
53 52 56 69 72 53 49 44 39 38 38 36 32 31 30 24 17 17 12 12 10 12 21 25 15 13 10 8 6 9 14 16 5 11 15 10 13 8 6 13 10 15 20 4 12 12 10 12 6 6 2 2 8 5
54 59 56 61 65 61 49 44 44 40 41 38 30 33 34 30 23 19 15 4 2 11 11 8 16 12 10 9 7 7 11 11 17 19 24 15 16 20 16 19 14 8 9 4 6 16 18 10 9 11 11 7 2 2
55 60 56 55 56 56 55 51 42 39 40 29 27 31 34 30 24 21 24 6 7 4 13 9 5 17 20 12 13 11 9 10 17 20 16 14 31 18 25 19 15 12 12 8 7 18 9 8 5 7 6 6 9 9
54 57 61 57 53 54 54 46 41 40 41 28 27 28 31 27 21 14 3 6 8 9 10 7 12 10 17 19 20 17 14 10 20 27 18 28 4 3 10 18 27 20 11 9 10 10 6 11 11 8 10 14 11 8
55 49 59 55 56 50 43 37 36 33 27 25 28 28 29 28 31 12 1 15 27 16 7 9 9 14 17 20 26 22 19 17 18 25 29 32 23 6 10 22 38 42 23 17 15 14 16 17 19 17 16 12 15 12
54 53 47 45 44 44 41 37 33 28 22 26 28 28 27 28 29 12 4 13 17 10 10 8 6 10 19 19 27 25 25 19 23 21 28 20 24 17 14 23 33 37 35 33 24 14 20 20 15 16 13 17 17 15
51 51 49 51 50 47 42 36 32 28 25 30 30 25 21 21 12 16 11 6 30 7 8 12 13 9 20 25 23 20 15 11 19 26 32 21 17 13 14 32 28 23 22 20 16 21 23 23 21 19 21 20 22 19
49 53 56 50 48 41 35 30 28 31 39 41 41 9 11 19 14 11 7 9 14 12 12 14 33 7 24 28 23 16 15 13 9 16 22 18 23 39 37 25 16 16 15 16 15 16 22 24 25 24 29 27 23 20
44 58 60 55 45 37 31 29 35 54 54 39 12 7 20 27 16 9 13 17 20 12 18 30 35 12 16 17 13 17 10 8 10 13 13 9 15 37 56 48 36 26 23 20 21 22 21 24 28 27 30 28 21 22
50 53 49 45 40 37 34 37 60 58 26 15 16 23 24 12 13 14 9 11 13 17 18 38 40 32 18 8 14 21 7 7 9 6 9 14 17 27 13 25 30 28 27 30 32 28 24 26 25 28 28 28 25 24
46 43 42 40 39 40 40 49 55 31 29 21 11 15 13 13 6 13 15 13 11 11 23 32 35 34 8 14 12 7 11 10 8 9 13 11 7 3 16 15 12 13 18 21 25 28 27 25 23 27 28 29 30 27
41 39 37 35 37 37 42 58 40 32 20 15 14 3 9 9 13 12 16 18 22 25 26 31 34 24 15 19 14 8 9 8 14 13 20 16 29 26 13 6 5 13 14 18 19 20 23 22 24 25 25 29 30 28
38 35 35 36 33 37 48 50 36 26 5 9 14 9 15 22 20 29 20 7 21 24 29 25 21 19 24 8 8 9 9 10 7 17 19 21 20 15 10 3 3 10 13 17 19 19 18 17 20 24 25 29 29 29
36 34 31 35 37 41 48 45 36 11 6 7 8 11 20 21 13 5 9 18 16 23 23 29 10 7 12 7 13 15 10 8 8 15 28 20 14 8 4 1 2 8 13 15 18 20 20 21 25 33 29 28 29 28
42 31 40 36 36 36 38 31 20 9 9 7 10 19 18 19 17 19 23 23 24 25 17 16 12 13 9 12 19 10 21 6 20 22 17 14 10 8 7 3 4 8 11 13 13 14 15 17 24 27 30 29 29 28
41 40 39 38 42 45 33 18 14 8 10 15 19 15 6 5 5 19 12 16 17 15 24 15 12 12 10 13 10 8 12 18 15 16 17 14 10 8 7 6 3 4 8 10 12 13 15 17 19 24 28 31 30 29
39 52 50 46 38 26 15 21 8 8 22 21 12 8 13 10 4 6 11 13 14 9 13 10 8 12 13 14 22 16 15 13 11 8 12 3 4 5 5 3 3 3 2 2 4 9 15 20 21 25 31 33 29 26
33 47 57 45 32 13 11 8 12 9 9 18 22 13 15 13 12 13 11 10 17 15 10 8 17 16 11 16 18 13 16 12 12 10 9 6 3 8 13 13 14 7 9 11 12 15 18 21 27 23 21 17 22 23
23 30 37 27 19 3 8 12 16 10 6 10 22 25 19 23 21 20 21 20 23 25 23 26 29 23 21 15 11 15 13 10 13 15 18 17 7 13 20 20 21 23 25 28 32 28 21 23 19 24 22 29 27 28
19 30 26 36 18 10 7 7 9 11 11 6 15 22 14 20 21 26 24 24 25 28 29 33 31 27 24 18 17 16 18 18 18 25 30 31 34 35 40 43 44 44 47 43 41 41 41 29 37 33 24 26 30 33
29 21 6 11 7 11 6 18 11 14 7 7 18 13 15 16 21 21 13 26 27 26 24 23 18 15 16 16 19 19 22 26 33 38 40 41 43 45 48 45 47 49 48 47 44 45 42 38 35 42 42 31 39 40
15 8 8 10 13 8 16 14 14 16 15 20 15 13 19 19 23 18 12 24 13 17 16 13 13 17 21 25 27 26 24 23 28 31 31 32 37 40 42 47 47 48 48 48 46 46 45 42 37 36 42 37 36 36
4 5 6 7 11 12 10 10 12 12 11 14 17 9 12 17 11 10 13 9 15 12 10 1 7 9 14 19 20 20 19 21 23 28 25 29 37 43 46 46 47 46 43 44 46 46 45 46 44 42 44 47 42 44
4 10 7 7 7 3 4 6 9 8 8 10 6 8 13 5 0 4 6 9 14 12 5 3 9 15 19 21 25 28 30 30 33 36 38 39 42 47 48 51 53 53 44 42 45 50 51 46 45 47 47 47 46 48
6 6 12 11 15 18 8 12 11 8 1 2 3 3 3 8 5 7 9 8 4 1 7 10 13 16 20 24 28 30 31 33 37 43 48 53 53 51 51 56 63 60 53 56 52 42 42 47 48 45 47 45 48 48
6 11 3 11 8 18 9 10 9 8 9 9 5 3 4 6 4 4 4 3 8 13 17 18 19 21 22 27 28 30 33 37 35 42 52 54 56 60 60 58 62 70 69 78 72 58 48 46 44 46 50 46 41 43
2 8 8 2 7 9 6 3 5 4 1 2 3 3 4 4 7 1 1 7 18 19 22 24 21 21 22 25 29 31 30 32 47 57 63 68 69 68 57 57 62 59 55 57 62 66 62 60 61 55 46 42 32 35
7 9 3 8 5 3 5 6 14 12 11 9 5 5 3 4 6 3 4 10 15 19 18 20 21 22 26 36 42 42 35 38 46 44 49 58 62 58 56 56 60 60 60 62 69 71 63 64 67 63 63 65 53 43
3 3 4 6 3 7 12 12 10 10 8 7 10 6 2 1 2 5 4 9 10 15 20 21 19 20 28 36 40 38 53 47 38 32 34 43 45 41 41 38 36 38 40 45 50 53 71 51 59 58 44 46 56 54
6 8 7 6 8 10 9 6 5 5 1 0 5 4 4 2 2 4 4 7 12 15 18 20 21 24 28 29 28 34 39 40 39 38 41 45 46 44 48 50 46 46 37 45 43 43 45 56 52 53 42 35 46 48
9 9 6 4 9 12 9 7 4 4 5 5 5 4 1 1 3 2 2 7 10 15 19 21 22 23 26 29 27 28 36 48 47 48 48 39 35 40 41 39 35 33 29 33 29 26 34 38 42 47 52 38 36 43
Wind_Direction_500mb
213 213 217 214 218 219 221 229 239 251 263 254 248 240 242 245 248 217 268 326 333 301 24 12 6 9 353 340 352 27 130 198 233 238 251 239 253 351 344 309 180 172 132 194 246 123 45 232 346 22 40 330 333 10
215 214 214 208 212 219 223 229 234 247 262 263 251 238 236 237 235 172 64 334 284 281 327 329 297 290 332 357 359 318 346 9 14 275 244 283 277 183 181 245 41 256 18 324 32 33 32 351 70 60 30 324 17 42
212 207 204 205 211 212 217 221 230 243 254 268 250 236 230 229 226 205 201 1 344 293 290 254 279 215 255 312 315 316 23 2 24 8 325 319 321 333 240 282 358 299 153 330 355 355 329 340 325 317 205 313 46 87
205 205 204 206 209 215 219 229 232 242 256 272 251 229 222 222 222 213 179 311 335 306 278 195 197 219 244 239 262 273 292 316 313 291 293 288 294 313 300 303 315 21 127 232 255 263 272 297 56 85 105 109 238 161
202 204 202 200 204 207 212 220 228 241 257 261 242 219 214 215 216 215 216 220 252 288 322 332 220 232 226 227 223 236 266 283 269 275 253 264 268 308 287 287 276 304 27 324 304 53 360 336 48 138 191 220 242 193
201 201 202 201 200 199 202 217 230 245 261 251 226 208 206 205 198 178 227 243 217 233 298 266 171 182 226 224 219 220 229 250 240 258 265 264 124 299 275 266 276 276 287 353 314 344 352 291 294 290 276 266 218 158
192 191 193 192 197 199 204 213 228 240 247 232 208 201 198 191 175 196 235 184 191 165 236 261 244 192 213 213 215 221 223 234 239 249 252 266 274 226 264 262 284 295 297 280 261 257 267 264 260 261 243 206 157 152
189 194 191 187 189 196 202 210 226 244 243 201 190 186 186 184 185 189 259 186 194 177 224 257 234 182 188 204 214 210 223 222 226 240 251 252 259 230 251 259 267 266 267 268 260 225 250 244 248 225 199 170 170 183
189 191 192 193 195 199 203 216 234 242 196 172 162 155 149 166 174 188 230 237 171 200 253 222 242 195 172 213 207 180 221 235 226 227 231 245 228 231 239 238 258 253 247 250 243 244 234 229 232 212 196 183 199 209
189 194 192 194 187 189 197 210 223 189 158 147 138 121 173 181 170 149 128 154 190 230 235 258 234 233 176 195 197 183 188 237 232 215 233 235 242 250 246 234 246 266 217 209 231 229 231 227 227 219 201 202 212 212
185 187 181 175 178 186 188 193 181 149 145 141 170 182 137 153 151 196 196 201 193 216 212 227 238 229 202 201 189 211 184 236 231 227 196 220 238 237 234 238 235 229 240 238 237 241 248 243 234 227 216 204 199 173
170 161 162 173 180 175 178 180 155 145 152 167 109 129 131 174 196 194 214 207 214 212 196 202 207 221 173 226 238 187 241 237 247 164 190 246 257 271 190 211 226 231 240 248 242 238 244 247 239 233 215 182 180 172
154 162 167 170 172 174 177 166 152 154 162 157 159 160 181 184 160 204 198 198 196 206 166 186 193 193 103 202 244 164 213 247 227 208 231 241 304 156 161 181 194 223 244 250 243 234 237 236 225 221 185 178 173 175
157 164 166 166 169 172 171 162 151 153 151 195 172 2 197 203 213 206 213 210 208 192 171 193 181 195 185 188 228 214 236 263 244 210 232 250 226 151 138 153 227 253 251 246 231 223 225 224 219 171 173 174 179 181
159 163 163 167 171 167 168 168 161 157 204 235 176 210 207 223 214 204 212 147 154 173 174 189 174 193 204 199 220 217 225 222 217 238 239 92 88 110 120 131 274 265 264 237 230 218 223 221 201 174 176 181 188 193
158 150 166 164 163 160 165 172 168 149 255 224 229 259 201 216 188 192 150 153 161 166 177 191 160 202 218 209 211 208 228 228 243 71 94 91 83 74 64 41 272 257 272 248 238 234 230 236 197 174 178 186 198 203
175 154 163 162 163 159 153 159 179 226 233 222 230 237 249 208 185 182 196 202 174 198 195 195 197 195 224 217 232 227 234 301 57 93 90 66 47 34 28 9 292 261 249 251 249 245 231 232 185 178 183 195 206 207
175 167 147 147 145 143 155 169 195 229 233 230 233 204 237 316 231 179 153 128 176 218 218 200 223 244 231 241 237 243 318 114 97 71 77 71 46 32 44 42 3 284 248 240 234 230 219 207 199 204 199 203 210 222
157 162 152 153 154 154 163 180 176 230 215 215 215 219 243 200 119 193 195 176 194 311 269 220 212 238 246 275 335 21 3 358 316 166 117 32 330 328 350 353 338 272 234 280 253 230 242 222 222 218 215 209 207 230
151 161 159 150 148 146 167 168 183 248 227 204 213 209 215 216 196 205 186 190 209 223 236 230 221 239 297 8 340 336 354 337 327 292 285 297 291 282 278 272 272 326 246 258 260 261 255 248 232 236 244 217 203 219
146 170 148 132 170 210 195 192 185 205 191 227 206 207 217 225 221 223 228 227 233 239 244 239 247 257 306 323 306 316 313 313 298 308 301 298 327 295 287 281 271 273 264 266 268 281 233 249 242 228 224 238 242 240
147 145 162 182 199 219 246 232 192 178 201 231 218 200 212 213 219 223 223 229 231 234 240 253 257 270 269 278 282 270 281 300 280 277 280 276 276 274 270 274 277 278 282 276 276 275 279 255 257 251 251 248 251 254
149 178 201 191 224 193 224 178 181 198 188 218 194 192 210 207 208 202 213 223 227 226 230 230 241 242 256 259 266 273 277 276 276 273 272 274 273 274 276 275 271 272 273 273 271 271 277 276 260 263 259 252 265 258
124 192 215 204 196 223 160 188 192 181 199 183 190 206 191 193 181 194 221 217 186 175 199 185 225 263 269 260 263 274 278 285 280 275 274 282 279 272 271 271 269 267 267 271 271 272 271 268 257 256 260 254 252 244
260 241 215 247 220 186 190 182 193 199 190 190 203 197 162 171 192 213 205 122 146 104 101 85 291 279 292 293 295 290 295 308 309 303 288 282 282 282 286 284 284 275 269 268 267 264 266 265 261 255 254 254 248 254
248 200 191 212 171 187 230 210 209 205 232 220 167 178 214 175 212 83 55 109 101 86 73 328 310 295 284 284 294 289 289 301 303 294 288 287 284 288 287 283 278 275 273 278 274 271 265 265 264 265 257 252 257 260
270 218 196 182 212 207 202 200 223 180 249 95 73 337 197 203 103 86 117 83 84 317 319 304 295 290 286 290 289 285 288 292 293 294 293 290 287 282 276 274 272 269 267 273 280 280 273 267 263 260 260 260 262 260
316 34 336 12 22 26 21 21 27 38 34 12 336 22 34 38 89 130 139 254 296 302 308 312 314 300 304 312 311 307 303 299 294 299 299 296 297 296 290 287 280 266 261 258 262 268 269 268 265 261 259 262 257 256
266 27 29 344 78 66 47 55 75 63 360 334 349 54 91 94 132 119 351 282 313 327 327 320 315 307 309 313 318 315 310 308 312 308 303 300 303 300 298 291 288 284 274 262 259 257 259 260 258 256 259 266 264 257
50 27 92 70 66 87 118 82 97 94 72 45 80 115 125 233 220 218 285 320 316 323 329 344 346 328 317 321 328 327 323 315 315 312 305 304 309 313 306 297 289 286 279 270 257 248 247 253 250 249 250 244 248 255
346 43 74 73 97 110 147 138 118 100 107 76 54 84 118 161 232 265 293 310 325 353 349 334 325 318 305 309 325 327 334 339 335 325 321 322 321 317 318 318 315 310 305 294 278 269 243 248 243 238 241 240 232 238
200 211 183 154 167 169 166 182 147 121 112 118 148 106 108 200 266 235 285 291 338 328 325 329 325 320 320 327 333 348 343 343 346 346 339 327 316 311 315 316 309 307 300 301 287 267 259 230 232 230 228 233 225 228
210 203 187 167 157 176 171 146 161 160 209 192 142 172 202 302 221 219 329 288 316 331 331 331 331 329 327 328 324 339 359 3 359 1 350 333 319 319 318 327 318 298 300 311 294 254 221 221 218 225 220 229 234 230
Wind_Speed_850mb
58 58 59 72 58 54 46 39 35 34 34 29 25 22 18 14 9 4 6 12 5 13 16 18 16 23 30 20 13 14 9 9 10 14 17 16 18 8 8 13 6 13 10 7 19 1 8 6 10 11 8 13 10 8
57 55 59 72 61 54 52 45 39 36 39 35 31 27 24 18 12 6 8 20 12 10 11 14 14 11 9 13 14 17 6 11 18 7 9 11 9 7 14 8 8 6 3 8 3 8 7 12 20 10 10 12 9 8
53 52 56 69 72 53 49 44 39 38 38 36 32 31 30 24 17 17 12 12 10 12 21 25 15 13 10 8 6 9 14 16 5 11 15 10 13 8 6 13 10 15 20 4 12 12 10 12 6 6 2 2 8 5
54 59 56 61 65 61 49 44 44 40 41 38 30 33 34 30 23 19 15 4 2 11 11 8 16 12 10 9 7 7 11 11 17 19 24 15 16 20 16 19 14 8 9 4 6 16 18 10 9 11 11 7 2 2
55 60 56 55 56 56 55 51 42 39 40 29 27 31 34 30 24 21 24 6 7 4 13 9 5 17 20 12 13 11 9 10 17 20 16 14 31 18 25 19 15 12 12 8 7 18 9 8 5 7 6 6 9 9
54 57 61 57 53 54 54 46 41 40 41 28 27 28 31 27 21 14 3 6 8 9 10 7 12 10 17 19 20 17 14 10 20 27 18 28 4 3 10 18 27 20 11 9 10 10 6 11 11 8 10 14 11 8
55 49 59 55 56 50 43 37 36 33 27 25 28 28 29 28 31 12 1 15 27 16 7 9 9 14 17 20 26 22 19 17 18 25 29 32 23 6 10 22 38 42 23 17 15 14 16 17 19 17 16 12 15 12
54 53 47 45 44 44 41 37 33 28 22 26 28 28 27 28 29 12 4 13 17 10 10 8 6 10 19 19 27 25 25 19 23 21 28 20 24 17 14 23 33 37 35 33 24 14 20 20 15 16 13 17 17 15
51 51 49 51 50 47 42 36 32 28 25 30 30 25 21 21 12 16 11 6 30 7 8 12 13 9 20 25 23 20 15 11 19 26 32 21 17 13 14 32 28 23 22 20 16 21 23 23 21 19 21 20 22 19
49 53 56 50 48 41 35 30 28 31 39 41 41 9 11 19 14 11 7 9 14 12 12 14 33 7 24 28 23 16 15 13 9 16 22 18 23 39 37 25 16 16 15 16 15 16 22 24 25 24 29 27 23 20
44 58 60 55 45 37 31 29 35 54 54 39 12 7 20 27 16 9 13 17 20 12 18 30 35 12 16 17 13 17 10 8 10 13 13 9 15 37 56 48 36 26 23 20 21 22 21 24 28 27 30 28 21 22
50 53 49 45 40 37 34 37 60 58 26 15 16 23 24 12 13 14 9 11 13 17 18 38 40 32 18 8 14 21 7 7 9 6 9 14 17 27 13 25 30 28 27 30 32 28 24 26 25 28 28 28 25 24
46 43 42 40 39 40 40 49 55 31 29 21 11 15 13 13 6 13 15 13 11 11 23 32 35 34 8 14 12 7 11 10 8 9 13 11 7 3 16 15 12 13 18 21 25 28 27 25 23 27 28 29 30 27
41 39 37 35 37 37 42 58 40 32 20 15 14 3 9 9 13 12 16 18 22 25 26 31 34 24 15 19 14 8 9 8 14 13 20 16 29 26 13 6 5 13 14 18 19 20 23 22 24 25 25 29 30 28
38 35 35 36 33 37 48 50 36 26 5 9 14 9 15 22 20 29 20 7 21 24 29 25 21 19 24 8 8 9 9 10 7 17 19 21 20 15 10 3 3 10 13 17 19 19 18 17 20 24 25 29 29 29
36 34 31 35 37 41 48 45 36 11 6 7 8 11 20 21 13 5 9 18 16 23 23 29 10 7 12 7 13 15 10 8 8 15 28 20 14 8 4 1 2 8 13 15 18 20 20 21 25 33 29 28 29 28
42 31 40 36 36 36 38 31 20 9 9 7 10 19 18 19 17 19 23 23 24 25 17 16 12 13 9 12 19 10 21 6 20 22 17 14 10 8 7 3 4 8 11 13 13 14 15 17 24 27 30 29 29 28
41 40 39 38 42 45 33 18 14 8 10 15 19 15 6 5 5 19 12 16 17 15 24 15 12 12 10 13 10 8 12 18 15 16 17 14 10 8 7 6 3 4 8 10 12 13 15 17 19 24 28 31 30 29
39 52 50 46 38 26 15 21 8 8 22 21 12 8 13 10 4 6 11 13 14 9 13 10 8 12 13 14 22 16 15 13 11 8 12 3 4 5 5 3 3 3 2 2 4 9 15 20 21 25 31 33 29 26
33 47 57 45 32 13 11 8 12 9 9 18 22 13 15 13 12 13 11 10 17 15 10 8 17 16 11 16 18 13 16 12 12 10 9 6 3 8 13 13 14 7 9 11 12 15 18 21 27 23 21 17 22 23
23 30 37 27 19 3 8 12 16 10 6 10 22 25 19 23 21 20 21 20 23 25 23 26 29 23 21 15 11 15 13 10 13 15 18 17 7 13 20 20 21 23 25 28 32 28 21 23 19 24 22 29 27 28
19 30 26 36 18 10 7 7 9 11 11 6 15 22 14 20 21 26 24 24 25 28 29 33 31 27 24 18 17 16 18 18 18 25 30 31 34 35 40 43 44 44 47 43 41 41 41 29 37 33 24 26 30 33
29 21 6 11 7 11 6 18 11 14 7 7 18 13 15 16 21 21 13 26 27 26 24 23 18 15 16 16 19 19 22 26 33 38 40 41 43 45 48 45 47 49 48 47 44 45 42 38 35 42 42 31 39 40
15 8 8 10 13 8 16 14 14 16 15 20 15 13 19 19 23 18 12 24 13 17 16 13 13 17 21 25 27 26 24 23 28 31 31 32 37 40 42 47 47 48 48 48 46 46 45 42 37 36 42 37 36 36
4 5 6 7 11 12 10 10 12 12 11 14 17 9 12 17 11 10 13 9 15 12 10 1 7 9 14 19 20 20 19 21 23 28 25 29 37 43 46 46 47 46 43 44 46 46 45 46 44 42 44 47 42 44
4 10 7 7 7 3 4 6 9 8 8 10 6 8 13 5 0 4 6 9 14 12 5 3 9 15 19 21 25 28 30 30 33 36 38 39 42 47 48 51 53 53 44 42 45 50 51 46 45 47 47 47 46 48
6 6 12 11 15 18 8 12 11 8 1 2 3 3 3 8 5 7 9 8 4 1 7 10 13 16 20 24 28 30 31 33 37 43 48 53 53 51 51 56 63 60 53 56 52 42 42 47 48 45 47 45 48 48
6 11 3 11 8 18 9 10 9 8 9 9 5 3 4 6 4 4 4 3 8 13 17 18 19 21 22 27 28 30 33 37 35 42 52 54 56 60 60 58 62 70 69 78 72 58 48 46 44 46 50 46 41 43
2 8 8 2 7 9 6 3 5 4 1 2 3 3 4 4 7 1 1 7 18 19 22 24 21 21 22 25 29 31 30 32 47 57 63 68 69 68 57 57 62 59 55 57 62 66 62 60 61 55 46 42 32 35
7 9 3 8 5 3 5 6 14 12 11 9 5 5 3 4 6 3 4 10 15 19 18 20 21 22 26 36 42 42 35 38 46 44 49 58 62 58 56 56 60 60 60 62 69 71 63 64 67 63 63 65 53 43
3 3 4 6 3 7 12 12 10 10 8 7 10 6 2 1 2 5 4 9 10 15 20 21 19 20 28 36 40 38 53 47 38 32 34 43 45 41 41 38 36 38 40 45 50 53 71 51 59 58 44 46 56 54
6 8 7 6 8 10 9 6 5 5 1 0 5 4 4 2 2 4 4 7 12 15 18 20 21 24 28 29 28 34 39 40 39 38 41 45 46 44 48 50 46 46 37 45 43 43 45 56 52 53 42 35 46 48
9 9 6 4 9 12 9 7 4 4 5 5 5 4 1 1 3 2 2 7 10 15 19 21 22 23 26 29 27 28 36 48 47 48 48 39 35 40 41 39 35 33 29 33 29 26 34 38 42 47 52 38 36 43
Wind_Direction_850mb
213 213 217 214 218 219 221 229 239 251 263 254 248 240 242 245 248 217 268 326 333 301 24 12 6 9 353 340 352 27 130 198 233 238 251 239 253 351 344 309 180 172 132 194 246 123 45 232 346 22 40 330 333 10
215 214 214 208 212 219 223 229 234 247 262 263 251 238 236 237 235 172 64 334 284 281 327 329 297 290 332 357 359 318 346 9 14 275 244 283 277 183 181 245 41 256 18 324 32 33 32 351 70 60 30 324 17 42
212 207 204 205 211 212 217 221 230 243 254 268 250 236 230 229 226 205 201 1 344 293 290 254 279 215 255 312 315 316 23 2 24 8 325 319 321 333 240 282 358 299 153 330 355 355 329 340 325 317 205 313 46 87
205 205 204 206 209 215 219 229 232 242 256 272 251 229 222 222 222 213 179 311 335 306 278 195 197 219 244 239 262 273 292 316 313 291 293 288 294 313 300 303 315 21 127 232 255 263 272 297 56 85 105 109 238 161
202 204 202 200 204 207 212 220 228 241 257 261 242 219 214 215 216 215 216 220 252 288 322 332 220 232 226 227 223 236 266 283 269 275 253 264 268 308 287 287 276 304 27 324 304 53 360 336 48 138 191 220 242 193
201 201 202 201 200 199 202 217 230 245 261 251 226 208 206 205 198 178 227 243 217 233 298 266 171 182 226 224 219 220 229 250 240 258 265 264 124 299 275 266 276 276 287 353 314 344 352 291 294 290 276 266 218 158
192 191 193 192 197 199 204 213 228 240 247 232 208 201 198 191 175 196 235 184 191 165 236 261 244 192 213 213 215 221 223 234 239 249 252 266 274 226 264 262 284 295 297 280 261 257 267 264 260 261 243 206 157 152
189 194 191 187 189 196 202 210 226 244 243 201 190 186 186 184 185 189 259 186 194 177 224 257 234 182 188 204 214 210 223 222 226 240 251 252 259 230 251 259 267 266 267 268 260 225 250 244 248 225 199 170 170 183
189 191 192 193 195 199 203 216 234 242 196 172 162 155 149 166 174 188 230 237 171 200 253 222 242 195 172 213 207 180 221 235 226 227 231 245 228 231 239 238 258 253 247 250 243 244 234 229 232 212 196 183 199 209
189 194 192 194 187 189 197 210 223 189 158 147 138 121 173 181 170 149 128 154 190 230 235 258 234 233 176 195 197 183 188 237 232 215 233 235 242 250 246 234 246 266 217 209 231 229 231 227 227 219 201 202 212 212
185 187 181 175 178 186 188 193 181 149 145 141 170 182 137 153 151 196 196 201 193 216 212 227 238 229 202 201 189 211 184 236 231 227 196 220 238 237 234 238 235 229 240 238 237 241 248 243 234 227 216 204 199 173
170 161 162 173 180 175 178 180 155 145 152 167 109 129 131 174 196 194 214 207 214 212 196 202 207 221 173 226 238 187 241 237 247 164 190 246 257 271 190 211 226 231 240 248 242 238 244 247 239 233 215 182 180 172
154 162 167 170 172 174 177 166 152 154 162 157 159 160 181 184 160 204 198 198 196 206 166 186 193 193 103 202 244 164 213 247 227 208 231 241 304 156 161 181 194 223 244 250 243 234 237 236 225 221 185 178 173 175
157 164 166 166 169 172 171 162 151 153 151 195 172 2 197 203 213 206 213 210 208 192 171 193 181 195 185 188 228 214 236 263 244 210 232 250 226 151 138 153 227 253 251 246 231 223 225 224 219 171 173 174 179 181
159 163 163 167 171 167 168 168 161 157 204 235 176 210 207 223 214 204 212 147 154 173 174 189 174 193 204 199 220 217 225 222 217 238 239 92 88 110 120 131 274 265 264 237 230 218 223 221 201 174 176 181 188 193
158 150 166 164 163 160 165 172 168 149 255 224 229 259 201 216 188 192 150 153 161 166 177 191 160 202 218 209 211 208 228 228 243 71 94 91 83 74 64 41 272 257 272 248 238 234 230 236 197 174 178 186 198 203
175 154 163 162 163 159 153 159 179 226 233 222 230 237 249 208 185 182 196 202 174 198 195 195 197 195 224 217 232 227 234 301 57 93 90 66 47 34 28 9 292 261 249 251 249 245 231 232 185 178 183 195 206 207
175 167 147 147 145 143 155 169 195 229 233 230 233 204 237 316 231 179 153 128 176 218 218 200 223 244 231 241 237 243 318 114 97 71 77 71 46 32 44 42 3 284 248 240 234 230 219 207 199 204 199 203 210 222
157 162 152 153 154 154 163 180 176 230 215 215 215 219 243 200 119 193 195 176 194 311 269 220 212 238 246 275 335 21 3 358 316 166 117 32 330 328 350 353 338 272 234 280 253 230 242 222 222 218 215 209 207 230
151 161 159 150 148 146 167 168 183 248 227 204 213 209 215 216 196 205 186 190 209 223 236 230 221 239 297 8 340 336 354 337 327 292 285 297 291 282 278 272 272 326 246 258 260 261 255 248 232 236 244 217 203 219
146 170 148 132 170 210 195 192 185 205 191 227 206 207 217 225 221 223 228 227 233 239 244 239 247 257 306 323 306 316 313 313 298 308 301 298 327 295 287 281 271 273 264 266 268 281 233 249 242 228 224 238 242 240
147 145 162 182 199 219 246 232 192 178 201 231 218 200 212 213 219 223 223 229 231 234 240 253 257 270 269 278 282 270 281 300 280 277 280 276 276 274 270 274 277 278 282 276 276 275 279 255 257 251 251 248 251 254
149 178 201 191 224 193 224 178 181 198 188 218 194 192 210 207 208 202 213 223 227 226 230 230 241 242 256 259 266 273 277 276 276 273 272 274 273 274 276 275 271 272 273 273 271 271 277 276 260 263 259 252 265 258
124 192 215 204 196 223 160 188 192 181 199 183 190 206 191 193 181 194 221 217 186 175 199 185 225 263 269 260 263 274 278 285 280 275 274 282 279 272 271 271 269 267 267 271 271 272 271 268 257 256 260 254 252 244
260 241 215 247 220 186 190 182 193 199 190 190 203 197 162 171 192 213 205 122 146 104 101 85 291 279 292 293 295 290 295 308 309 303 288 282 282 282 286 284 284 275 269 268 267 264 266 265 261 255 254 254 248 254
248 200 191 212 171 187 230 210 209 205 232 220 167 178 214 175 212 83 55 109 101 86 73 328 310 295 284 284 294 289 289 301 303 294 288 287 284 288 287 283 278 275 273 278 274 271 265 265 264 265 257 252 257 260
270 218 196 182 212 207 202 200 223 180 249 95 73 337 197 203 103 86 117 83 84 317 319 304 295 290 286 290 289 285 288 292 293 294 293 290 287 282 276 274 272 269 267 273 280 280 273 267 263 260 260 260 262 260
316 34 336 12 22 26 21 21 27 38 34 12 336 22 34 38 89 130 139 254 296 302 308 312 314 300 304 312 311 307 303 299 294 299 299 296 297 296 290 287 280 266 261 258 262 268 269 268 265 261 259 262 257 256
266 27 29 344 78 66 47 55 75 63 360 334 349 54 91 94 132 119 351 282 313 327 327 320 315 307 309 313 318 315 310 308 312 308 303 300 303 300 298 291 288 284 274 262 259 257 259 260 258 256 259 266 264 257
50 27 92 70 66 87 118 82 97 94 72 45 80 115 125 233 220 218 285 320 316 323 329 344 346 328 317 321 328 327 323 315 315 312 305 304 309 313 306 297 289 286 279 270 257 248 247 253 250 249 250 244 248 255
346 43 74 73 97 110 147 138 118 100 107 76 54 84 118 161 232 265 293 310 325 353 349 334 325 318 305 309 325 327 334 339 335 325 321 322 321 317 318 318 315 310 305 294 278 269 243 248 243 238 241 240 232 238
200 211 183 154 167 169 166 182 147 121 112 118 148 106 108 200 266 235 285 291 338 328 325 329 325 320 320 327 333 348 343 343 346 346 339 327 316 311 315 316 309 307 300 301 287 267 259 230 232 230 228 233 225 228
210 203 187 167 157 176 171 146 161 160 209 192 142 172 202 302 221 219 329 288 316 331 331 331 331 329 327 328 324 339 359 3 359 1 350 333 319 319 318 327 318 298 300 311 294 254 221 221 218 225 220 229 234 230